Bartow, Florida, United States (33830)
Lat: 27.90N, Lon: 81.84W
Wx Zone: FLZ052
Local Info
Past Weather Observations for Friday, August 29, 2014

NOTE: This archive is for the closest National Weather Service station to Bartow. Information may differ from the station used for current weather conditions.

Click here for Long-term Archive

Time Weather Temperature Dewpoint Humidity Pressure Winds Precip Visibility
23:55
Clear
72°F / 22°C N/A N/A 30.12 in
(1020 mb)
SE 3.5 mph
(SE 6 kph)
- 10SM
23:35
Clear
72°F / 22°C N/A N/A 30.09 in
(1019 mb)
ESE 6.9 mph
(ESE 11 kph)
- 10SM
23:15
Clear
72°F / 22°C N/A N/A 30.09 in
(1019 mb)
ESE 6.9 mph
(ESE 11 kph)
- 10SM
22:55
Clear
73°F / 23°C N/A N/A 30.09 in
(1019 mb)
Calm - 10SM
22:35
Clear
Light Rain
73°F / 23°C N/A N/A 30.12 in
(1020 mb)
Calm - 10SM
22:15
Partly Cloudy
Drizzle
72°F / 22°C N/A N/A 30.12 in
(1020 mb)
NNE 4.6 mph
(NNE 7 kph)
- 10SM
21:55
Mostly Cloudy
Light Rain
72°F / 22°C 72°F / 22°C 100% 30.12 in
(1020 mb)
E 3.5 mph
(E 6 kph)
0.02 in
(0.51 mm)
10SM
21:35
Mostly Cloudy
Light Rain
72°F / 22°C N/A N/A 30.12 in
(1020 mb)
N 6.9 mph
(N 11 kph)
0.01 in
(0.25 mm)
10SM
21:15
Mostly Cloudy
Drizzle
72°F / 22°C N/A N/A 30.12 in
(1020 mb)
N 8.1 mph
(N 13 kph)
0.01 in
(0.25 mm)
10SM
20:55
Overcast
Thunder Storms
72°F / 22°C N/A N/A 30.15 in
(1021 mb)
N 8.1 mph
(N 13 kph)
0.49 in
(12.45 mm)
5SM
20:35
Overcast
Thunder Storms
72°F / 22°C N/A N/A 30.15 in
(1021 mb)
S 10.4 mph
(S 17 kph)
0.34 in
(8.64 mm)
1 1/4SM
20:15
Overcast
Thunder Storms
72°F / 22°C 72°F / 22°C 100% 30.15 in
(1021 mb)
SSE 5.8 mph
(SSE 9 kph)
0.02 in
(0.51 mm)
3SM
19:55
Overcast
Thunder Storms
73°F / 23°C 73°F / 23°C 100% 30.12 in
(1020 mb)
SSE 10.4 mph
(SSE 17 kph)
0.07 in
(1.78 mm)
2 1/2SM
19:35
Overcast
Thunder Storms
75°F / 24°C 75°F / 24°C 100% 30.12 in
(1020 mb)
S 11.5 mph
(S 19 kph)
- 10SM
19:15
Mostly Cloudy
77°F / 25°C 77°F / 25°C 100% 30.09 in
(1019 mb)
ENE 5.8 mph
(ENE 9 kph)
- 10SM
18:55
Partly Cloudy
79°F / 26°C 77°F / 25°C 94% 30.09 in
(1019 mb)
WNW 4.6 mph
(WNW 7 kph)
- 10SM
18:35
Partly Cloudy
Light Rain
79°F / 26°C 75°F / 24°C 89% 30.06 in
(1018 mb)
NE 4.6 mph
(NE 7 kph)
- 10SM
18:15
Mostly Cloudy
Drizzle
79°F / 26°C 75°F / 24°C 89% 30.06 in
(1018 mb)
NW 6.9 mph
(NW 11 kph)
- 10SM
17:55
Partly Cloudy
Thunder Storms
79°F / 26°C 73°F / 23°C 84% 30.06 in
(1018 mb)
N 5.8 mph
(N 9 kph)
- 10SM
17:35
Clear
Thunder Storms
79°F / 26°C 75°F / 24°C 89% 30.04 in
(1017 mb)
NW 5.8 mph
(NW 9 kph)
- 10SM
17:15
Clear
79°F / 26°C 75°F / 24°C 89% 30.04 in
(1017 mb)
N 8.1 mph
(N 13 kph)
- 10SM
16:55
Clear
79°F / 26°C 75°F / 24°C 89% 30.06 in
(1018 mb)
N 10.4 mph
(N 17 kph)
- 10SM
16:35
Partly Cloudy
Thunder Storms
79°F / 26°C 75°F / 24°C 89% 30.06 in
(1018 mb)
N 8.1 mph
(N 13 kph)
- 10SM
15:47
Mostly Cloudy
79°F / 26°C 77°F / 25°C 94% 30.06 in
(1018 mb)
NE 11.5 mph
(NE 19 kph)
- 10SM
14:50
Mostly Cloudy
Showers In Vicinity
84°F / 29°C 72°F / 22°C 66% 30.04 in
(1017 mb)
SSW 15 mph
(SSW 24 kph)
- 10SM
13:47
Mostly Cloudy
Thunder Storms
90°F / 32°C 70°F / 21°C 52% 30.04 in
(1017 mb)
SSW 13.8 mph
(SSW 22 kph)
- 10SM
12:55
Mostly Cloudy
91°F / 33°C 73°F / 23°C 56% 30.04 in
(1017 mb)
ESE 6.9 mph
(ESE 11 kph)
- 10SM
11:50
Mostly Cloudy
90°F / 32°C 73°F / 23°C 59% 30.06 in
(1018 mb)
S 6.9 mph
(S 11 kph)
- 10SM
10:55
Mostly Cloudy
90°F / 32°C 73°F / 23°C 59% 30.06 in
(1018 mb)
SW 6.9 mph
(SW 11 kph)
- 10SM
09:55
Mostly Cloudy
88°F / 31°C 75°F / 24°C 66% 30.06 in
(1018 mb)
S 6.9 mph
(S 11 kph)
- 10SM
08:55
Partly Cloudy
84°F / 29°C 75°F / 24°C 74% 30.06 in
(1018 mb)
S 8.1 mph
(S 13 kph)
- 10SM
07:50
Partly Cloudy
79°F / 26°C 79°F / 26°C 100% 30.06 in
(1018 mb)
SE 5.8 mph
(SE 9 kph)
- 10SM
06:47
Partly Cloudy
73°F / 23°C N/A N/A 30.06 in
(1018 mb)
Calm - 10SM
06:15
Partly Cloudy
73°F / 23°C N/A N/A 30.04 in
(1017 mb)
ESE 4.6 mph
(ESE 7 kph)
- 10SM
05:55
Partly Cloudy
73°F / 23°C N/A N/A 30.04 in
(1017 mb)
E 3.5 mph
(E 6 kph)
- 10SM
05:35
Partly Cloudy
73°F / 23°C N/A N/A 30.04 in
(1017 mb)
Calm - 10SM
05:15
Mostly Cloudy
73°F / 23°C N/A N/A 30.04 in
(1017 mb)
SE 4.6 mph
(SE 7 kph)
- 10SM
04:55
Clear
73°F / 23°C N/A N/A 30.04 in
(1017 mb)
Calm - 10SM
04:35
Clear
73°F / 23°C 73°F / 23°C 100% 30.01 in
(1016 mb)
E 4.6 mph
(E 7 kph)
- 10SM
04:15
Clear
73°F / 23°C 73°F / 23°C 100% 30.01 in
(1016 mb)
ENE 4.6 mph
(ENE 7 kph)
- 10SM
03:55
Clear
73°F / 23°C 73°F / 23°C 100% 30.01 in
(1016 mb)
E 4.6 mph
(E 7 kph)
- 10SM
03:35
Clear
73°F / 23°C 73°F / 23°C 100% 30.01 in
(1016 mb)
E 4.6 mph
(E 7 kph)
- 10SM
03:15
Partly Cloudy
73°F / 23°C 73°F / 23°C 100% 30.01 in
(1016 mb)
E 4.6 mph
(E 7 kph)
- 10SM
02:55
Partly Cloudy
75°F / 24°C 75°F / 24°C 100% 30.01 in
(1016 mb)
E 3.5 mph
(E 6 kph)
- 10SM
02:35
Mostly Cloudy
73°F / 23°C 73°F / 23°C 100% 30.04 in
(1017 mb)
Calm - 10SM
02:15
Mostly Cloudy
75°F / 24°C 75°F / 24°C 100% 30.04 in
(1017 mb)
ESE 3.5 mph
(ESE 6 kph)
- 10SM
01:55
Partly Cloudy
75°F / 24°C 75°F / 24°C 100% 30.04 in
(1017 mb)
Calm - 10SM
01:35
Mostly Cloudy
75°F / 24°C 75°F / 24°C 100% 30.04 in
(1017 mb)
ESE 3.5 mph
(ESE 6 kph)
- 10SM
01:15
Mostly Cloudy
75°F / 24°C 75°F / 24°C 100% 30.04 in
(1017 mb)
Calm - 10SM
00:55
Mostly Cloudy
75°F / 24°C 73°F / 23°C 94% 30.04 in
(1017 mb)
E 3.5 mph
(E 6 kph)
- 10SM
00:35
Partly Cloudy
75°F / 24°C 73°F / 23°C 94% 30.04 in
(1017 mb)
Calm - 10SM
00:15
Clear
75°F / 24°C 73°F / 23°C 94% 30.04 in
(1017 mb)
Calm - 10SM
Time Weather Temperature Dewpoint Humidity Pressure Winds Precip Visibility


Weather for websites

WeatherForYou.com, LLC is not responsible for any damages or problems caused by this service. Current weather conditions are obtained from the closest station including government and personal stations which may have varying degrees of accuracy. Weather forecasts are derived from the NOAA NDFD. Like all things, this site belongs to Jesus Christ... He just trusts me to maintain it. If you have any questions or comments email webmaster@weatherforyou.com

Copyright © 2014, WeatherForYou.com LLC. All rights reserved.